Tracking 29892 objects as of 21-Nov-2024
HD Live streaming from Space Station
objects crossing your sky now

STARLINK-30917

Track STARLINK-30917 now!
10-day predictions
STARLINK-30917 is classified as:


NORAD ID: 58419
Int'l Code: 2023-180T
Perigee: 565.3 km
Apogee: 567.2 km
Inclination: 43.0 °
Period: 95.8 minutes
Semi major axis: 6937 km
RCS: Unknown
Launch date: November 22, 2023
Source: United States (US)
Launch site: AIR FORCE EASTERN TEST RANGE (AFETR)
Your satellite tracking list
Your tracking list is empty




NASA's NSSDC Master Catalog

Two Line Element Set (TLE):
1 58419U 23180T   24325.81936315 -.00000129  00000-0  55283-5 0  9994
2 58419  43.0031 110.7448 0001378 266.9256  93.1429 15.02534884 56302
Source of the keplerian elements: AFSPC